Hollywood, FL

12:52 PM EST on November 22, 2019 (GMT -0500)
North Perry

Weather History for KHWO - October, 2019

Change the Weather History Date:

Monday, October 21, 2019

  Actual Average (KFLL) Record (KFLL)
Temperature  
Mean Temperature 85 °F -  
Max Temperature 93 °F 83 °F 91 °F (1980)
Min Temperature 77 °F 70 °F 48 °F (1913)
Cooling Degree Days 20    
Growing Degree Days 35 (Base 50)    
Moisture  
Dew Point 74 °F    
Average Humidity 72    
Maximum Humidity 90    
Minimum Humidity 52    
Precipitation  
Precipitation 0.00 in - - ()
Sea Level Pressure  
Sea Level Pressure 30.00 in    
Wind  
Wind Speed 4 mph (SSE)    
Max Wind Speed 12 mph    
Max Gust Speed -    
Visibility 10 miles    
Events      
Averages and records for this station are not official NWS values.
T = Trace of Precipitation, MM = Missing Value Source: NWS Daily Summary

Daily Weather History Graph

Daily Weather History Graph

Search for Another Location

Airport or City:

Astronomy

Oct. 21, 2019 Rise Set
Actual Time 7:22 AM EDT 6:47 PM EDT
Civil Twilight 6:59 AM EDT 7:11 PM EDT
Nautical Twilight 6:32 AM EDT 7:38 PM EDT
Astronomical Twilight 6:05 AM EDT 8:04 PM EDT
Moon 12:17 AM EDT (10/21) 2:20 PM EDT (10/21)
Length of Visible Light 12h 11m
Length of Day
11h 24m
Waning Gibbous, 48% of the Moon is Illuminated
Oct 21
Waning Gibbous
Oct 27
New
Nov 4
First Quarter
Nov 12
Full
Nov 19
Last Quarter

Hourly Weather History & Observations

Time (EDT) Temp. Heat Index Dew Point Humidity Pressure Visibility Wind Dir Wind Speed Gust Speed Precip Events Conditions
12:53 AM 82.0 °F 88.6 °F 75.0 °F 79% 29.99 in 10.0 mi Calm Calm - N/A   Clear
1:53 AM 81.0 °F 86.7 °F 75.0 °F 82% 29.98 in 10.0 mi Calm Calm - N/A   Clear
2:53 AM 80.1 °F 85.1 °F 75.0 °F 85% 29.97 in 10.0 mi SSW 3.5 mph - N/A   Clear
3:53 AM 79.0 °F - 75.0 °F 88% 29.96 in 10.0 mi Calm Calm - N/A   Clear
4:53 AM 78.1 °F - 75.0 °F 90% 29.97 in 10.0 mi Calm Calm - N/A   Clear
5:53 AM 78.1 °F - 73.9 °F 87% 29.98 in 10.0 mi Calm Calm - N/A   Clear
6:53 AM 77.0 °F - 73.9 °F 90% 29.99 in 10.0 mi Calm Calm - N/A   Clear
7:53 AM 78.1 °F - 75.0 °F 90% 30.01 in 10.0 mi Calm Calm - N/A   Clear
8:53 AM 82.9 °F 91.8 °F 77.0 °F 82% 30.01 in 10.0 mi SSE 5.8 mph - N/A   Clear
9:53 AM 87.1 °F 96.3 °F 75.0 °F 67% 30.01 in 10.0 mi South 9.2 mph - N/A   Scattered Clouds
10:53 AM 89.1 °F 97.0 °F 73.0 °F 59% 30.01 in 10.0 mi SE 11.5 mph - N/A   Partly Cloudy
11:53 AM 90.0 °F 99.0 °F 73.9 °F 59% 30.02 in 10.0 mi SSE 10.4 mph - N/A   Mostly Cloudy
12:53 PM 91.0 °F 100.4 °F 73.9 °F 57% 30.01 in 10.0 mi SSE 10.4 mph - N/A   Scattered Clouds
1:53 PM 93.0 °F 101.9 °F 73.0 °F 52% 29.99 in 10.0 mi South 9.2 mph - N/A   Scattered Clouds
2:53 PM 91.0 °F 99.3 °F 73.0 °F 55% 29.98 in 10.0 mi SSE 10.4 mph - N/A   Mostly Cloudy
3:53 PM 91.0 °F 99.3 °F 73.0 °F 55% 29.98 in 10.0 mi SE 8.1 mph - N/A   Partly Cloudy
4:53 PM 91.0 °F 98.2 °F 72.0 °F 53% 29.98 in 10.0 mi SE 9.2 mph - N/A   Scattered Clouds
5:53 PM 89.1 °F 96.0 °F 72.0 °F 57% 29.98 in 10.0 mi South 8.1 mph - N/A   Clear
6:53 PM 86.0 °F 93.8 °F 73.9 °F 67% 29.99 in 10.0 mi SSE 10.4 mph - N/A   Clear
7:53 PM 84.9 °F 93.3 °F 75.0 °F 72% 30.01 in 10.0 mi SSE 4.6 mph - N/A   Clear
9:53 PM 82.9 °F 90.8 °F 75.9 °F 79% 30.02 in 10.0 mi SSE 5.8 mph - N/A   Clear
10:53 PM 82.9 °F 90.8 °F 75.9 °F 79% 30.03 in 10.0 mi SSE 3.5 mph - N/A   Clear
11:53 PM 82.9 °F 90.8 °F 75.9 °F 79% 30.03 in 10.0 mi Calm Calm - N/A   Clear